Location: *
(90.0000°N, 180.0000°W)
Time: 22:15:23
(UTC+00:00)

Daily predictions for brighter satellites

Satellite Brightness Start Highest point End
(mag) Time Altitude Azimuth Time Altitude Azimuth Time Altitude Azimuth
Cosmos 1825 4.3 12:00:55 10° E 12:04:10 27° NNE 12:07:26 10° NW
Cosmos 1626 3.9 12:03:29 19° ESE 12:05:10 27° ENE 12:08:22 10° N
Resurs 1-4 Rocket 3.4 12:01:07 10° N 12:06:00 35° ENE 12:09:56 15° ESE
Cosmos 1689 Rocket 4.3 12:07:58 19° W 12:07:58 19° W 12:09:27 10° NW
CZ-4 R/B 3.5 12:06:09 10° WNW 12:09:30 27° N 12:12:53 10° ENE
Cosmos 2279 Rocket 4.2 12:07:49 35° SSW 12:09:49 46° SSE 12:15:45 10° E
Meteor 1-27 Rocket 4.4 12:12:53 35° SSE 12:12:53 35° SSE 12:17:25 10° ESE
ARGOS Delta rocket 4.3 12:08:52 10° ENE 12:13:09 39° SE 12:13:09 39° SE
Cosmos 2061 Rocket 4.3 12:08:19 10° W 12:14:24 47° SSW 12:16:54 32° SSE
CZ-4B R/B 3.3 12:16:04 19° WNW 12:16:04 19° WNW 12:17:37 10° NW
Cosmos 2016 Rocket 4.2 12:09:30 10° W 12:15:24 46° SSW 12:17:33 33° SSE
Cosmos 1953 3.6 12:12:03 10° NNW 12:15:31 29° W 12:16:10 27° W
ALOS 4.0 12:11:16 10° WNW 12:15:32 33° N 12:19:49 10° NE
Meteor 2-4 Rocket 4.3 12:15:31 34° SSE 12:15:40 34° SSE 12:20:32 10° E
Mayak -0.1 12:12:09 10° NE 12:15:55 30° ESE 12:16:35 29° ESE
IDEFIX/ARIANE 42P 4.2 12:13:08 10° NW 12:17:56 35° NNE 12:22:43 10° E
Resurs 01 Rocket 3.4 12:14:38 10° W 12:18:38 31° NNW 12:22:38 10° NE
Cosmos 1634 Rocket 4.2 12:16:56 32° SW 12:19:15 46° S 12:25:10 10° E
Cosmos 2221 3.5 12:15:57 10° NW 12:19:48 32° WSW 12:19:48 32° WSW
Cosmos 2322 Rocket 4.4 12:20:13 10° ESE 12:21:43 11° ESE 12:23:14 10° E
Cosmos 1151 Rocket 4.2 12:18:06 10° WNW 12:21:01 28° WSW 12:21:01 28° WSW
Helios 1B rocket 3.9 12:18:49 10° E 12:21:12 24° ESE 12:21:12 24° ESE
Cosmos 1238 Rocket 4.1 12:21:33 35° SSE 12:22:30 39° ESE 12:27:41 10° NE
Cosmos 2034 Rocket 4.2 12:16:48 10° WSW 12:22:47 46° S 12:28:44 10° ESE
YAOGAN 6 4.5 12:24:24 13° W 12:26:58 27° NNW 12:30:02 10° NNE
ARIANE 5 R/B 3.9 12:24:00 10° N 12:28:36 34° ENE 12:32:35 13° SE
Cosmos 1455 4.0 12:27:05 10° WNW 12:28:38 19° W 12:28:38 19° W
Cosmos 1842 4.5 12:34:28 28° ESE 12:34:28 28° ESE 12:37:38 10° ENE
SJ 16-02 3.7 12:37:07 11° ESE 12:37:07 11° ESE 12:37:26 10° ESE
Cosmos 2173 Rocket 4.2 12:30:15 10° WNW 12:36:07 46° SW 12:38:07 35° S
Cosmos 2263 Rocket 4.3 12:35:05 10° W 12:35:42 11° WSW 12:35:42 11° WSW
Cosmos 1707 4.0 12:37:00 28° ESE 12:37:15 28° ESE 12:40:35 10° NE
Iridium 4 Rocket 3.2 12:34:56 10° NW 12:39:38 60° SW 12:40:24 51° S
USA 186 3.9 12:38:11 12° WNW 12:40:23 24° NNW 12:42:55 10° NE
Cosmos 1605 Rocket 4.3 12:34:58 10° WNW 12:40:56 46° SW 12:42:49 36° S
Cosmos 1459 Rocket 4.2 12:38:36 10° WNW 12:44:32 46° SW 12:46:27 35° S
H-2A R/B 3.3 12:41:26 16° WSW 12:45:06 35° NW 12:49:49 10° NNE
Cosmos 1674 4.2 12:44:47 25° ESE 12:45:45 28° E 12:49:06 10° NNE
Cosmos 1300 4.1 12:42:36 10° NW 12:45:04 25° W 12:45:04 25° W
Cosmos 2228 4.4 12:42:38 10° N 12:46:33 32° WNW 12:48:11 24° W
Cosmos 1934 Rocket 4.3 12:42:11 10° NW 12:47:58 45° WSW 12:49:33 37° SSW
CZ-4B R/B 4.4 12:43:43 10° ENE 12:48:23 32° ESE 12:49:29 30° SSE
Cosmos 1892 Rocket 4.5 12:49:36 33° SE 12:49:38 33° SE 12:53:40 10° ENE
Cosmos 1464 Rocket 4.2 12:44:25 10° W 12:50:16 46° SSW 12:56:12 10° ESE
Terra 3.1 12:48:35 21° WSW 12:50:58 32° NW 12:55:17 10° N
CZ-2D R/B 3.5 12:46:01 10° N 12:51:03 36° ENE 12:55:15 14° SE
Cosmos 1340 Rocket 4.3 12:51:20 24° ESE 12:51:20 24° ESE 12:54:25 10° ENE
ARGOS 4.5 12:47:20 13° WSW 12:51:34 35° NW 12:56:29 10° NNE
Cosmos 2098 Rocket 4.4 12:45:51 10° NW 12:52:26 46° WSW 12:54:13 37° SSW
ASTEX 1 3.6 12:50:35 10° N 12:55:34 66° E 12:57:26 38° SSE
Cosmos 2058 Rocket 4.4 12:52:36 10° N 12:56:35 32° WNW 12:58:17 24° W
S3M 4.4 12:55:52 36° S 12:57:39 45° SE 13:03:26 10° ENE
CZ-2C R/B 2.5 12:54:14 10° NW 12:58:31 63° WSW 12:59:00 55° SSW
CZ-2C R/B 4.2 12:54:25 10° NW 12:59:13 36° NNE 13:04:02 10° E
SL-16 R/B 3.1 12:58:48 34° SW 13:00:06 38° WSW 13:05:56 10° NW
ALOS 2 3.8 13:00:12 28° W 13:01:11 31° WNW 13:05:08 10° NNW
Cosmos 2297 Rocket 4.5 12:59:57 10° WNW 13:01:30 11° WNW 13:03:03 10° W
Cosmos 2315 Rocket 4.5 12:59:53 34° S 13:02:00 46° SE 13:07:55 10° ENE
Cosmos 2233 Rocket 4.2 12:57:15 10° W 13:03:06 45° SSW 13:08:55 10° SE
Cosmos 2100 Rocket 4.3 12:58:06 10° WNW 13:04:07 46° SW 13:06:17 34° S
CZ-2C R/B 3.4 13:00:41 10° ENE 13:05:29 35° SE 13:06:42 31° SSE
SL-08 R/B 4.2 13:05:59 32° WSW 13:05:59 32° WSW 13:10:06 10° NW
Cosmos 2218 Rocket 4.5 13:00:46 10° NNW 13:06:46 46° W 13:08:56 34° SW
Meteor 2-10 Rocket 4.3 13:04:10 10° WNW 13:08:49 35° SW 13:08:49 35° SW
Cosmos 1726 3.6 13:07:03 10° NW 13:09:27 24° W 13:09:27 24° W
ADEOS II 3.6 13:10:29 10° N 13:15:20 35° ENE 13:20:11 10° SE
SL-8 Rocket 4.5 13:09:42 10° NNW 13:15:42 46° W 13:17:50 34° SW
Cosmos 1470 4.0 13:15:53 10° N 13:19:14 28° WNW 13:19:39 27° W
Cosmos 1975 Rocket 4.4 13:20:56 26° SE 13:20:56 26° SE 13:23:28 10° ESE
ADEOS Rocket 4.3 13:12:20 10° NNE 13:19:49 46° E 13:24:38 21° SSE
CRYOSAT 2 4.4 13:15:21 10° NNE 13:20:15 71° ESE 13:21:45 44° S
Cosmos 1802 Rocket 4.2 13:15:03 10° WNW 13:20:51 45° SW 13:22:45 35° S
Cosmos 1242 Rocket 4.3 13:18:55 10° NNW 13:21:40 21° WNW 13:22:01 20° WNW
H-2A R/B 3.4 13:20:38 24° W 13:21:55 28° WNW 13:25:43 10° N
Cosmos-2242 4.1 13:18:05 10° NNW 13:21:59 32° WNW 13:22:35 31° W
Cosmos 2366 rocket 4.4 13:16:51 10° NNW 13:22:44 46° W 13:24:43 35° SW
ERS-1 Rocket 4.4 13:19:56 13° W 13:23:50 33° NNW 13:28:24 10° NNE
GP-B 3.0 13:26:54 29° SE 13:29:11 88° ENE 13:33:41 10° NNW
Okean O Rocket 3.5 13:28:07 10° N 13:32:07 31° NE 13:36:07 10° ESE
Cosmos 2228 Rocket 4.1 13:28:25 10° NW 13:31:54 32° W 13:31:54 32° W
Cosmos 1980 Rocket 4.3 13:31:53 11° SE 13:32:35 11° SE 13:34:17 10° ESE
H-2A R/B 4.0 13:29:27 10° NE 13:32:59 27° E 13:34:28 21° SE
CZ-2C R/B 4.0 13:32:42 25° W 13:34:28 33° WNW 13:38:48 10° N
SL-24 DEB 4.3 13:30:08 10° NNE 13:34:47 70° ESE 13:36:09 44° S
SPOT 5 4.3 13:32:17 17° W 13:35:41 34° NW 13:40:10 10° NNE
Cosmos 1025 Rocket 4.0 13:36:22 31° SE 13:36:22 31° SE 13:39:43 10° E
Iridium 51 4.5 13:34:55 10° N 13:38:37 49° WNW 13:38:44 48° W
Cosmos 1825 4.3 13:35:46 10° ESE 13:39:01 27° NE 13:42:18 10° NNW
Cosmos 1689 Rocket 4.3 13:40:39 19° WNW 13:40:39 19° WNW 13:42:09 10° NNW
Cosmos 1626 3.9 13:38:07 19° SE 13:39:48 27° E 13:42:59 10° NNE
Cosmos 1725 Rocket 4.2 13:34:17 10° WNW 13:40:12 46° SW 13:42:58 29° S
SL-16 R/B 4.4 13:39:51 10° SE 13:41:28 11° SE 13:43:06 10° ESE
Cosmos 1553 Rocket 4.4 13:43:17 36° SSW 13:45:19 47° SSE 13:51:25 10° E
CZ-4 R/B 3.5 13:42:11 10° NW 13:45:33 27° NNE 13:48:56 10° E
Resurs 1-4 Rocket 3.4 13:42:12 10° NNE 13:47:05 35° E 13:51:01 15° SSE
CZ-4B R/B 3.3 13:49:34 19° NW 13:49:34 19° NW 13:51:07 10° NNW
Cosmos 1821 Rocket 4.4 13:42:36 10° NNW 13:48:39 46° W 13:50:33 36° SW
Cosmos 1953 3.6 13:47:46 10° N 13:51:13 29° WNW 13:51:53 27° WNW
Mayak -0.1 13:48:47 10° ENE 13:52:33 30° SE 13:53:13 29° SSE
ARGOS Delta rocket 4.3 13:48:28 10° E 13:52:45 39° SSE 13:52:45 39° SSE
ALOS 4.0 13:49:47 10° NW 13:54:04 33° NNE 13:58:21 10° E
Cosmos 2279 Rocket 4.2 13:52:23 35° SW 13:54:24 46° S 14:00:20 10° ESE
Meteor 1-27 Rocket 4.4 13:55:21 35° S 13:55:21 35° S 13:59:50 10° SE
Resurs 01 Rocket 3.4 13:52:12 10° WNW 13:56:12 31° N 14:00:12 10° ENE
Cosmos 2221 3.5 13:52:48 10° NNW 13:56:40 32° W 13:56:40 32° W
Meteor 2-4 Rocket 4.3 13:57:36 34° S 13:57:45 34° S 14:02:36 10° ESE
IDEFIX/ARIANE 42P 4.2 13:53:56 10° NNW 13:58:44 35° NE 14:03:31 10° ESE
Cosmos 1151 Rocket 4.1 13:54:56 10° NW 13:57:52 28° W 13:57:52 28° W
Helios 1B rocket 3.9 13:55:10 10° ESE 13:57:33 24° SE 13:57:33 24° SE
Cosmos 2061 Rocket 4.3 13:53:16 10° NW 13:59:20 47° WSW 14:01:49 32° S
Cosmos 2016 Rocket 4.2 13:54:08 10° NW 14:00:01 46° SW 14:02:09 34° S
YAOGAN 6 4.5 13:58:50 13° WNW 14:01:24 27° N 14:04:28 10° NE
Cosmos 1238 Rocket 4.1 14:00:37 35° S 14:01:34 39° SE 14:06:45 10° E
Cosmos 2322 Rocket 4.4 14:02:01 10° SE 14:03:31 11° SE 14:05:02 10° ESE
Cosmos 1634 Rocket 4.2 14:01:36 32° WSW 14:03:55 46° SSW 14:09:50 10° SE
Cosmos 1455 4.0 14:02:03 10° NW 14:03:36 19° WNW 14:03:36 19° WNW
Cosmos 2034 Rocket 4.2 14:01:32 10° W 14:07:33 46° SSW 14:13:29 10° SE
ARIANE 5 R/B 3.9 14:04:20 10° NNE 14:08:56 34° E 14:12:56 13° SSE
USA 186 3.9 14:09:28 12° NW 14:11:40 24° N 14:14:12 10° ENE
Cosmos 1707 4.0 14:12:13 28° SE 14:12:28 28° SE 14:15:47 10° ENE
Cosmos 2227 Rocket 4.5 14:11:00 10° NW 14:12:39 11° NW 14:14:19 10° WNW
SJ 16-02 3.7 14:14:07 11° SE 14:14:07 11° SE 14:14:25 10° SE
Cosmos 2263 Rocket 4.3 14:16:45 10° WNW 14:17:23 11° WNW 14:17:23 11° WNW
Iridium 4 Rocket 3.2 14:14:43 10° NNW 14:19:25 60° WSW 14:20:11 51° SSW
Cosmos 1674 4.2 14:19:40 25° SE 14:20:37 28° ESE 14:23:58 10° ENE
Cosmos 2173 Rocket 4.2 14:14:51 10° NW 14:20:43 46° WSW 14:22:43 35° SSW
Cosmos 1300 4.1 14:17:36 10° NNW 14:20:03 25° WNW 14:20:03 25° WNW
Cosmos 2228 4.4 14:19:29 10° NNE 14:23:24 32° NW 14:25:02 24° WNW
Cosmos 1605 Rocket 4.3 14:19:37 10° NNW 14:25:35 46° WSW 14:27:28 37° SW
H-2A R/B 3.3 14:22:04 16° W 14:25:43 35° NNW 14:30:27 10° NE
Cosmos 1892 Rocket 4.5 14:26:46 33° SSE 14:26:48 33° SSE 14:30:50 10° E
Cosmos 1340 Rocket 4.3 14:26:57 24° SE 14:26:57 24° SE 14:30:01 10° E
CZ-4B R/B 4.4 14:23:39 10° E 14:28:20 32° SSE 14:29:25 30° S
Cosmos 1459 Rocket 4.2 14:23:07 10° NW 14:29:02 46° WSW 14:30:57 36° SSW
Terra 3.1 14:27:28 21° WNW 14:29:50 32° NNW 14:34:10 10° NE
CZ-2D R/B 3.5 14:27:20 10° NNE 14:32:22 36° E 14:36:35 14° SSE
Cosmos 1934 Rocket 4.3 14:26:42 10° NNW 14:32:29 45° W 14:34:03 38° SW
ARGOS 4.5 14:28:51 13° WNW 14:33:05 35° NNW 14:38:00 10° NE
Cosmos 2098 Rocket 4.4 14:26:31 10° NNW 14:33:06 46° W 14:34:51 37° SW
Cosmos 2058 Rocket 4.4 14:29:52 10° NNE 14:33:51 32° NNW 14:35:33 24° WNW
Cosmos 1464 Rocket 4.2 14:29:07 10° WNW 14:34:57 46° SW 14:40:53 10° SSE
ASTEX 1 3.6 14:30:06 10° NNE 14:35:05 66° ESE 14:36:57 38° S
ALOS 2 3.8 14:37:36 28° WNW 14:38:34 31° NW 14:42:31 10° NNE
CZ-2C R/B 4.2 14:33:49 10° NNW 14:38:37 36° NE 14:43:26 10° ESE
S3M 4.3 14:40:34 36° SSW 14:42:20 45° SSE 14:48:07 10° E
Cosmos 2297 Rocket 4.5 14:41:45 10° NNW 14:43:17 11° NW 14:44:50 10° WNW
Cosmos 1726 3.6 14:41:38 10° NNW 14:44:01 25° NW 14:44:01 25° NW
SL-08 R/B 4.2 14:44:58 32° W 14:44:58 32° W 14:49:05 10° NNW
SL-16 R/B 3.1 14:43:54 34° WSW 14:45:12 38° W 14:51:02 10° NNW
Cosmos 2315 Rocket 4.5 14:44:45 34° SSW 14:46:51 46° SSE 14:52:45 10° E
CZ-2C R/B 3.4 14:42:12 10° E 14:47:00 35° SSE 14:48:13 31° S
Cosmos 2233 Rocket 4.2 14:41:50 10° NW 14:47:41 45° SW 14:53:30 10° SSE
Cosmos 2100 Rocket 4.3 14:42:50 10° NW 14:48:50 46° WSW 14:51:00 34° SSW
Meteor 2-10 Rocket 4.3 14:45:18 10° NW 14:49:57 35° WSW 14:49:57 35° WSW
Cosmos 2218 Rocket 4.5 14:45:32 10° N 14:51:33 46° WNW 14:53:42 34° WSW
Cosmos 1470 4.0 14:51:15 10° NNE 14:54:36 28° NW 14:55:02 27° WNW
Cosmos 1242 Rocket 4.3 14:53:02 10° N 14:55:46 21° NW 14:56:07 20° NW
ADEOS II 3.6 14:51:26 10° NNE 14:56:17 35° E 15:01:08 10° SSE
Cosmos 1975 Rocket 4.4 14:58:06 26° SSE 14:58:06 26° SSE 15:00:37 10° SE
Cosmos-2242 4.1 14:54:56 10° N 14:58:50 32° NW 14:59:26 31° WNW
H-2A R/B 3.4 14:57:45 24° WNW 14:59:01 28° NW 15:02:51 10° NNE
CRYOSAT 2 4.4 14:54:34 10° NE 14:59:29 71° SE 15:00:58 44° SSW
SL-8 Rocket 4.5 14:54:19 10° N 15:00:20 46° WNW 15:02:28 34° WSW
ERS-1 Rocket 4.4 14:59:57 13° WNW 15:03:50 33° N 15:08:24 10° ENE
Cosmos 1802 Rocket 4.2 14:59:52 10° NW 15:05:40 45° WSW 15:07:34 35° SSW
GP-B 3.0 15:04:22 29° S 15:06:38 88° E 15:11:07 10° N
ADEOS Rocket 4.3 14:59:18 10° NE 15:06:46 46° SE 15:11:35 21° S
Cosmos 2366 rocket 4.4 15:01:32 10° N 15:07:24 46° WNW 15:09:24 35° WSW
H-2A R/B 4.0 15:06:03 10° ENE 15:09:35 27° ESE 15:11:03 21° SSE
Okean O Rocket 3.5 15:05:35 10° NNE 15:09:35 31° E 15:13:35 10° SE
Cosmos 2228 Rocket 4.1 15:05:54 10° NNW 15:09:23 32° WNW 15:09:23 32° WNW
Cosmos 1689 Rocket 4.3 15:13:20 19° NNW 15:13:20 19° NNW 15:14:49 10° N
Cosmos 1025 Rocket 4.0 15:13:15 31° S 15:13:15 31° S 15:16:35 10° ESE
SL-24 DEB 4.3 15:08:39 10° NE 15:13:17 70° SE 15:14:40 44° SSW
Cosmos 1825 4.3 15:10:38 10° SE 15:13:54 27° ENE 15:17:09 10° N
Cosmos 1980 Rocket 4.3 15:13:39 11° SSE 15:14:20 11° SSE 15:16:01 10° SE
Cosmos 1626 3.9 15:12:46 19° SSE 15:14:25 27° ESE 15:17:36 10° NE
SPOT 5 4.3 15:11:33 17° WNW 15:14:56 34° N 15:19:25 10° NE
Iridium 51 4.5 15:11:47 10° NNE 15:15:29 49° NW 15:15:36 48° WNW
CZ-2C R/B 4.0 15:13:46 25° WNW 15:15:32 33° NNW 15:19:52 10° NNE
CZ-4 R/B 3.5 15:18:14 10° NNW 15:21:36 27° NE 15:24:59 10° ESE
CZ-4B R/B 3.3 15:23:05 19° NNW 15:23:05 19° NNW 15:24:36 10° N
SL-16 R/B 4.4 15:21:42 10° SSE 15:23:19 11° SSE 15:24:56 10° SE
Cosmos 1725 Rocket 4.2 15:18:59 10° NW 15:24:53 46° WSW 15:27:36 29° SSW
Cosmos 1953 3.6 15:23:29 10° NNE 15:26:56 29° NW 15:27:35 27° NW
Resurs 1-4 Rocket 3.4 15:23:17 10° NE 15:28:10 35° ESE 15:32:06 15° S
Mayak -0.1 15:25:26 10° E 15:29:12 30° SSE 15:29:51 29° S
Cosmos 1553 Rocket 4.4 15:27:56 36° SW 15:29:57 47° S 15:36:03 10° ESE
ARGOS Delta rocket 4.3 15:28:04 10° SE 15:32:21 38° S 15:32:21 38° S
ALOS 4.0 15:28:19 10° NNW 15:32:35 33° NE 15:36:52 10° ESE
Cosmos 1821 Rocket 4.4 15:27:14 10° N 15:33:18 46° WNW 15:35:11 36° WSW
Cosmos 2221 3.5 15:29:39 10° N 15:33:31 32° WNW 15:33:31 32° WNW
Resurs 01 Rocket 3.4 15:29:46 10° NW 15:33:46 31° NNE 15:37:46 10° E
Helios 1B rocket 3.9 15:31:33 10° SE 15:33:54 24° SSE 15:33:54 24° SSE
Cosmos 1151 Rocket 4.1 15:31:47 10° NNW 15:34:42 29° WNW 15:34:42 29° WNW
YAOGAN 6 4.5 15:33:17 13° NW 15:35:49 27° NNE 15:38:53 10° ENE
Meteor 1-27 Rocket 4.4 15:37:49 35° SSW 15:37:49 35° SSW 15:42:14 10° SSE
Cosmos 2279 Rocket 4.2 15:36:58 35° WSW 15:38:58 46° SSW 15:44:55 10° SE
IDEFIX/ARIANE 42P 4.2 15:34:45 10° N 15:39:33 35° ENE 15:44:20 10° SE
Meteor 2-4 Rocket 4.3 15:39:41 34° SSW 15:39:49 34° SSW 15:44:40 10° SE
Cosmos 1455 4.0 15:37:01 10° NNW 15:38:34 19° NW 15:38:34 19° NW
Cosmos 1238 Rocket 4.1 15:39:40 36° SSW 15:40:37 39° S 15:45:49 10° ESE
USA 186 3.9 15:40:45 12° NNW 15:42:57 24° NNE 15:45:29 10° E
Cosmos 2061 Rocket 4.3 15:38:13 10° NNW 15:44:17 47° W 15:46:45 32° SSW
Cosmos 2016 Rocket 4.2 15:38:45 10° NNW 15:44:39 46° W 15:46:44 34° SW
Cosmos 2322 Rocket 4.4 15:43:48 10° S 15:45:18 11° SSE 15:46:49 10° SE
Cosmos 1707 4.0 15:47:25 28° SSE 15:47:40 28° SSE 15:50:59 10° E
Cosmos 1634 Rocket 4.2 15:46:16 32° W 15:48:35 46° SW 15:54:29 10° SSE
ARIANE 5 R/B 3.9 15:44:40 10° NE 15:49:16 34° ESE 15:53:16 13° S
SJ 16-02 3.7 15:51:07 11° SSE 15:51:07 11° SSE 15:51:25 10° SSE
Cosmos 2034 Rocket 4.2 15:46:17 10° NW 15:52:16 46° SW 15:58:13 10° SSE
Cosmos 2227 Rocket 4.5 15:52:48 10° N 15:54:27 11° NNW 15:56:07 10° NW
Cosmos 1674 4.2 15:54:33 25° SSE 15:55:30 28° SE 15:58:51 10° E
Cosmos 1300 4.1 15:52:35 10° N 15:55:03 25° NW 15:55:03 25° NW
Iridium 4 Rocket 3.2 15:54:30 10° N 15:59:12 60° W 15:59:57 51° SW
Cosmos 2263 Rocket 4.3 15:58:26 10° NW 15:59:04 11° NW 15:59:04 11° NW
Cosmos 2228 4.4 15:56:19 10° NE 16:00:14 32° N 16:01:53 24° NW
Cosmos 1340 Rocket 4.3 16:02:34 24° S 16:02:34 24° S 16:05:37 10° ESE
Cosmos 1892 Rocket 4.5 16:03:56 33° S 16:03:58 33° S 16:07:59 10° ESE
Cosmos 2173 Rocket 4.2 15:59:27 10° NNW 16:05:19 46° W 16:07:17 35° SW
H-2A R/B 3.3 16:02:42 16° NW 16:06:21 35° N 16:11:04 10° ENE
CZ-4B R/B 4.4 16:03:35 10° ESE 16:08:16 32° S 16:09:21 30° SSW
Terra 3.1 16:06:21 21° NW 16:08:44 32° N 16:13:03 10° ENE
Cosmos 1605 Rocket 4.3 16:04:16 10° N 16:10:15 46° WNW 16:12:06 37° WSW
Cosmos 2058 Rocket 4.4 16:07:09 10° NE 16:11:08 32° N 16:12:50 24° NW
Cosmos 1459 Rocket 4.2 16:07:37 10° NNW 16:13:34 46° W 16:15:27 36° SW
CZ-2D R/B 3.5 16:08:40 10° ENE 16:13:42 36° SE 16:17:54 14° S
Cosmos 2098 Rocket 4.4 16:07:11 10° N 16:13:45 46° WNW 16:15:30 37° W
ARGOS 4.5 16:10:22 13° NW 16:14:35 35° N 16:19:31 10° ENE
ASTEX 1 3.6 16:09:36 10° ENE 16:14:36 65° SE 16:16:27 38° SSW
ALOS 2 3.8 16:14:59 28° NW 16:15:58 31° NNW 16:19:55 10° NE
Cosmos 1934 Rocket 4.3 16:11:12 10° N 16:17:00 45° WNW 16:18:33 38° WSW
CZ-2C R/B 4.2 16:13:12 10° N 16:18:00 36° ENE 16:22:49 10° SE
Cosmos 1726 3.6 16:16:12 10° N 16:18:36 25° NNW 16:18:36 25° NNW
Cosmos 1464 Rocket 4.2 16:13:47 10° NW 16:19:39 46° WSW 16:25:34 10° S
SL-08 R/B 4.2 16:23:57 32° WNW 16:23:57 32° WNW 16:28:04 10° N
Cosmos 2297 Rocket 4.5 16:23:32 10° N 16:25:04 11° NNW 16:26:37 10° NW
S3M 4.3 16:25:16 36° SW 16:27:01 45° SSW 16:32:48 10° SE
CZ-2C R/B 3.4 16:23:43 10° ESE 16:28:31 35° S 16:29:44 31° SSW
Cosmos 1242 Rocket 4.3 16:27:08 10° NE 16:29:52 21° NNW 16:30:14 20° NNW
Cosmos 1470 4.0 16:26:38 10° NE 16:29:59 28° NNW 16:30:24 27° NW
SL-16 R/B 3.1 16:29:00 34° W 16:30:18 38° WNW 16:36:07 10° N
Meteor 2-10 Rocket 4.3 16:26:26 10° NNW 16:31:05 35° WNW 16:31:05 35° WNW
Cosmos 2315 Rocket 4.5 16:29:35 34° SW 16:31:41 46° S 16:37:36 10° ESE
Cosmos 2233 Rocket 4.2 16:26:24 10° NNW 16:32:15 45° W 16:38:04 10° S
Cosmos 2100 Rocket 4.3 16:27:33 10° N 16:33:34 46° W 16:35:42 34° SW
Cosmos 1975 Rocket 4.4 16:35:16 26° S 16:35:16 26° S 16:37:45 10° SSE
Cosmos-2242 4.1 16:31:47 10° NNE 16:35:41 32° NNW 16:36:17 31° NW
H-2A R/B 3.4 16:34:52 24° NW 16:36:09 28° N 16:39:57 10° NE
Cosmos 2218 Rocket 4.5 16:30:18 10° NNE 16:36:19 46° NW 16:38:28 35° W
ADEOS II 3.6 16:32:22 10° NE 16:37:14 35° ESE 16:42:05 10° S
CRYOSAT 2 4.4 16:33:48 10° ENE 16:38:42 71° SSE 16:40:11 44° SW
ERS-1 Rocket 4.4 16:39:57 13° NW 16:43:50 33° NNE 16:48:24 10° E
GP-B 3.0 16:41:50 29° SSW 16:44:06 88° E 16:48:35 10° NNE
SL-8 Rocket 4.5 16:38:58 10° NNE 16:44:57 46° NW 16:47:05 34° W
Cosmos 1689 Rocket 4.3 16:46:02 19° N 16:46:02 19° N 16:47:31 10° NNE
H-2A R/B 4.0 16:42:39 10° E 16:46:11 27° SSE 16:47:39 21° S
Okean O Rocket 3.5 16:43:02 10° NE 16:47:02 31° ESE 16:51:02 10° SSE
Cosmos 2228 Rocket 4.1 16:43:23 10° N 16:46:52 32° NW 16:46:52 32° NW
Cosmos 1825 4.3 16:45:29 10° SSE 16:48:45 27° E 16:52:01 10° NE
Cosmos 1626 3.9 16:47:23 19° S 16:49:02 27° SE 16:52:14 10° ENE
Cosmos 1025 Rocket 4.0 16:50:08 31° SSW 16:50:08 31° SSW 16:53:29 10° SE
Cosmos 1802 Rocket 4.2 16:44:41 10° N 16:50:29 45° W 16:52:22 35° WSW
SL-24 DEB 4.3 16:47:09 10° ENE 16:51:48 70° SSE 16:53:10 44° SW
Cosmos 2366 rocket 4.4 16:46:12 10° NNE 16:52:04 46° NW 16:54:04 35° W
Iridium 51 4.5 16:48:39 10° NE 16:52:20 49° NNW 16:52:27 48° NNW
ADEOS Rocket 4.3 16:46:15 10° E 16:53:44 46° SSE 16:58:32 21° SW
SPOT 5 4.3 16:50:48 17° NW 16:54:10 34° NNE 16:58:39 10° E
CZ-4B R/B 3.3 16:56:35 19° N 16:56:35 19° N 16:58:06 10° NNE
Cosmos 1980 Rocket 4.3 16:55:25 11° SSW 16:56:04 11° S 16:57:46 10° S
CZ-2C R/B 4.0 16:54:49 25° NW 16:56:36 33° N 17:00:55 10° ENE
CZ-4 R/B 3.5 16:54:17 10° NNE 16:57:38 27° ENE 17:01:02 10° SE
Cosmos 1953 3.6 16:59:12 10° NE 17:02:40 29° N 17:03:18 27° NNW
SL-16 R/B 4.4 17:03:32 10° SSW 17:05:09 11° S 17:06:46 10° SSE
Mayak -0.1 17:02:04 10° ESE 17:05:50 30° S 17:06:29 29° SSW
Resurs 1-4 Rocket 3.4 17:04:21 10° ENE 17:09:15 35° SE 17:13:10 15° SSW
Cosmos 1725 Rocket 4.2 17:03:39 10° NNW 17:09:33 46° W 17:12:13 29° SW
YAOGAN 6 4.5 17:07:42 13° NNW 17:10:15 27° NE 17:13:19 10° E
Cosmos 2221 3.5 17:06:31 10° NNE 17:10:23 32° NW 17:10:23 32° NW
ALOS 4.0 17:06:50 10° N 17:11:07 33° ENE 17:15:24 10° SE
Resurs 01 Rocket 3.4 17:07:21 10° NNW 17:11:21 31° NE 17:15:20 10° ESE
Helios 1B rocket 3.9 17:07:54 10° SSE 17:10:16 24° S 17:10:16 24° S
ARGOS Delta rocket 4.3 17:07:41 10° SSE 17:11:57 38° SW 17:11:57 38° SW
Cosmos 1151 Rocket 4.1 17:08:37 10° N 17:11:33 29° NW 17:11:33 29° NW
USA 186 3.9 17:12:03 12° N 17:14:14 24° NE 17:16:45 10° ESE
Cosmos 1553 Rocket 4.4 17:12:36 36° WSW 17:14:36 47° SSW 17:20:41 10° SE
Cosmos 1455 4.0 17:11:59 10° N 17:13:32 19° NNW 17:13:32 19° NNW
Cosmos 1821 Rocket 4.4 17:11:53 10° NNE 17:17:57 46° NW 17:19:50 36° W
Meteor 1-27 Rocket 4.4 17:20:17 35° SW 17:20:17 35° SW 17:24:40 10° SSW
Cosmos 1238 Rocket 4.1 17:18:44 36° SW 17:19:41 39° SSW 17:24:53 10° SE
IDEFIX/ARIANE 42P 4.2 17:15:33 10° NNE 17:20:21 35° E 17:25:08 10° SSE
Meteor 2-4 Rocket 4.3 17:21:46 34° SW 17:21:53 34° SW 17:26:44 10° SSE
Cosmos 1707 4.0 17:22:38 28° S 17:22:52 28° S 17:26:12 10° ESE
Cosmos 2279 Rocket 4.2 17:21:34 35° WNW 17:23:33 46° WSW 17:29:29 10° SSE
SJ 16-02 3.7 17:28:07 11° S 17:28:07 11° S 17:28:24 10° S
Cosmos 2322 Rocket 4.4 17:25:35 10° SSW 17:27:06 11° S 17:28:36 10° SSE
Cosmos 2061 Rocket 4.3 17:23:10 10° N 17:29:14 47° WNW 17:31:41 32° WSW
Cosmos 2016 Rocket 4.2 17:23:22 10° N 17:29:16 46° WNW 17:31:20 34° WSW
ARIANE 5 R/B 3.9 17:25:01 10° ENE 17:29:37 34° SE 17:33:35 13° SSW
Cosmos 1674 4.2 17:29:27 25° S 17:30:22 28° SSE 17:33:44 10° ESE
Cosmos 1300 4.1 17:27:34 10° NNE 17:30:02 25° NNW 17:30:02 25° NNW
Cosmos 1634 Rocket 4.2 17:30:56 32° WNW 17:33:15 46° WSW 17:39:10 10° S
Cosmos 2227 Rocket 4.5 17:34:35 10° NNE 17:36:14 11° N 17:37:54 10° NNW
Cosmos 2034 Rocket 4.2 17:31:01 10° NNW 17:37:01 46° W 17:42:58 10° S
Cosmos 2228 4.4 17:33:10 10° ENE 17:37:05 32° NNE 17:38:43 24° NNW
Cosmos 1340 Rocket 4.3 17:38:11 24° SSW 17:38:11 24° SSW 17:41:14 10° SE
Iridium 4 Rocket 3.2 17:34:18 10° NNE 17:38:59 60° WNW 17:39:44 52° W
Cosmos 1892 Rocket 4.5 17:41:07 33° SSW 17:41:08 33° SSW 17:45:10 10° SSE
Cosmos 2263 Rocket 4.3 17:40:06 10° NNW 17:40:45 11° NNW 17:40:45 11° NNW
H-2A R/B 3.3 17:43:20 16° NNW 17:46:59 35° NNE 17:51:42 10° E
Terra 3.1 17:45:15 21° NNW 17:47:36 32° NNE 17:51:56 10° E
CZ-4B R/B 4.4 17:43:32 10° SE 17:48:12 32° SSW 17:49:18 30° SW
Cosmos 2058 Rocket 4.4 17:44:25 10° E 17:48:24 32° NNE 17:50:07 24° NNW
Cosmos 2173 Rocket 4.2 17:44:03 10° N 17:49:55 46° WNW 17:51:53 35° WSW
ALOS 2 3.8 17:52:23 28° NNW 17:53:21 31° N 17:57:19 10° ENE
Cosmos 1726 3.6 17:50:47 10° NNE 17:53:11 25° N 17:53:11 25° N
ASTEX 1 3.6 17:49:08 10° E 17:54:07 65° SSE 17:55:58 38° SW
Cosmos 2098 Rocket 4.4 17:47:51 10° NE 17:54:25 46° NNW 17:56:09 37° WNW
Cosmos 1605 Rocket 4.3 17:48:56 10° NNE 17:54:54 46° NW 17:56:46 37° W
CZ-2D R/B 3.5 17:50:00 10° E 17:55:02 36° SSE 17:59:13 14° SSW
ARGOS 4.5 17:51:53 14° NNW 17:56:06 35° NE 18:01:02 10° ESE
CZ-2C R/B 4.2 17:52:35 10° NNE 17:57:23 36° E 18:02:13 10° SSE
Cosmos 1459 Rocket 4.2 17:52:09 10° N 17:58:04 46° WNW 17:59:57 36° WSW
Cosmos 1934 Rocket 4.3 17:55:43 10° NNE 18:01:30 45° NW 18:03:04 38° W
SL-08 R/B 4.2 18:02:57 32° NNW 18:02:57 32° NNW 18:07:03 10° NNE
Cosmos 1242 Rocket 4.3 18:01:14 10° ENE 18:03:58 21° N 18:04:20 20° N
Cosmos 1464 Rocket 4.2 17:58:29 10° NNW 18:04:20 46° W 18:10:15 10° SSW
Cosmos 1470 4.0 18:02:00 10° ENE 18:05:22 28° N 18:05:47 27° N
Cosmos 2297 Rocket 4.5 18:05:18 10° NNE 18:06:51 11° N 18:08:24 10° NNW
CZ-2C R/B 3.4 18:05:15 10° SE 18:10:02 35° SSW 18:11:14 31° SW
Cosmos 1975 Rocket 4.4 18:12:25 26° SSW 18:12:25 26° SSW 18:14:54 10° S
S3M 4.3 18:09:57 36° W 18:11:42 45° SW 18:17:29 10° SSE
Cosmos-2242 4.1 18:08:38 10° ENE 18:12:32 32° N 18:13:08 31° NNW
Meteor 2-10 Rocket 4.3 18:07:34 10° N 18:12:13 35° NW 18:12:13 35° NW
H-2A R/B 3.4 18:11:59 24° NNW 18:13:16 28° NNE 18:17:04 10° ENE
SL-16 R/B 3.1 18:14:06 34° WNW 18:15:23 38° NW 18:21:13 10° NNE
Cosmos 2315 Rocket 4.5 18:14:26 34° WSW 18:16:32 46° SSW 18:22:26 10° SE
Cosmos 2233 Rocket 4.2 18:10:59 10° N 18:16:50 45° WNW 18:22:39 10° SW
Cosmos 1689 Rocket 4.3 18:18:43 19° NNE 18:18:43 19° NNE 18:20:11 10° NE
CRYOSAT 2 4.4 18:13:01 10° ESE 18:17:56 71° S 18:19:25 44° WSW
ADEOS II 3.6 18:13:19 10° ENE 18:18:11 35° SE 18:23:02 10° SSW
Cosmos 2100 Rocket 4.3 18:12:17 10° NNE 18:18:17 46° NW 18:20:25 35° W
Cosmos 2218 Rocket 4.5 18:15:05 10° NE 18:21:06 46° NNW 18:23:15 35° WNW
GP-B 3.0 18:19:18 30° SW 18:21:33 88° SE 18:26:03 10° NE
H-2A R/B 4.0 18:19:15 10° ESE 18:22:47 27° S 18:24:15 21° SSW
Cosmos 1825 4.3 18:20:21 10° S 18:23:36 27° ESE 18:26:53 10° ENE
Cosmos 1626 3.9 18:22:02 20° SSW 18:23:40 27° SSE 18:26:51 10° E
ERS-1 Rocket 4.4 18:19:57 13° NNW 18:23:50 33° NE 18:28:24 10° ESE
Okean O Rocket 3.5 18:20:30 10° ENE 18:24:30 31° SE 18:28:30 10° SSW
Cosmos 2228 Rocket 4.1 18:20:52 10° NNE 18:24:21 32° NNW 18:24:21 32° NNW
Cosmos 1025 Rocket 4.1 18:27:02 30° SW 18:27:02 30° SW 18:30:22 10° S
CZ-4B R/B 3.3 18:30:05 19° NNE 18:30:05 19° NNE 18:31:37 10° NE
Iridium 51 4.5 18:25:31 10° ENE 18:29:11 49° N 18:29:18 48° N
SL-8 Rocket 4.5 18:23:35 10° ENE 18:29:35 46° NNW 18:31:43 34° WNW
SL-24 DEB 4.3 18:25:40 10° E 18:30:19 70° S 18:31:40 44° WSW
SPOT 5 4.3 18:30:02 17° NNW 18:33:25 33° NE 18:37:53 10° ESE
CZ-4 R/B 3.5 18:30:20 10° NE 18:33:42 27° E 18:37:05 10° SSE
Cosmos 1802 Rocket 4.2 18:29:29 10° NNE 18:35:18 45° NW 18:37:09 36° W
Cosmos 2366 rocket 4.4 18:30:52 10° ENE 18:36:44 46° NNW 18:38:44 35° WNW
CZ-2C R/B 4.0 18:35:54 26° NNW 18:37:39 33° NNE 18:41:59 10° E
Cosmos 1980 Rocket 4.3 18:37:11 11° SW 18:37:49 11° SSW 18:39:31 10° SSW
Cosmos 1953 3.6 18:34:54 10° ENE 18:38:22 29° NNE 18:39:01 27° N
ADEOS Rocket 4.3 18:33:12 10° ESE 18:40:41 46° S 18:45:29 21° WSW
Mayak -0.1 18:38:43 10° SE 18:42:28 30° SSW 18:43:08 29° SW
YAOGAN 6 4.5 18:42:09 13° N 18:44:41 27° ENE 18:47:45 10° ESE
USA 186 3.9 18:43:21 13° NNE 18:45:31 24° ENE 18:48:03 10° SE
SL-16 R/B 4.4 18:45:23 10° SW 18:47:00 11° SSW 18:48:37 10° S
Cosmos 2221 3.5 18:43:22 10° NE 18:47:14 32° NNW 18:47:14 32° NNW
Helios 1B rocket 3.9 18:44:15 10° S 18:46:37 24° SW 18:46:37 24° SW
Resurs 01 Rocket 3.4 18:44:55 10° N 18:48:55 31° ENE 18:52:54 10° SE
Cosmos 1151 Rocket 4.1 18:45:28 10° NNE 18:48:23 29° N 18:48:23 29° N
ALOS 4.0 18:45:22 10° NNE 18:49:39 33° E 18:53:55 10° SSE
Cosmos 1455 4.0 18:46:57 10° NNE 18:48:30 20° N 18:48:30 20° N
Resurs 1-4 Rocket 3.4 18:45:27 10° E 18:50:19 35° SSE 18:54:14 15° SW
ARGOS Delta rocket 4.3 18:47:18 10° S 18:51:32 38° WSW 18:51:32 38° WSW
Cosmos 1725 Rocket 4.2 18:48:19 10° NNE 18:54:13 46° WNW 18:56:51 30° WSW
Cosmos 1707 4.0 18:57:51 28° SSW 18:58:03 28° SSW 19:01:23 10° SSE
Cosmos 1238 Rocket 4.1 18:57:48 36° WSW 18:58:44 39° SW 19:03:57 10° SSE
Cosmos 1553 Rocket 4.4 18:57:14 36° W 18:59:14 47° SW 19:05:20 10° SSE
IDEFIX/ARIANE 42P 4.2 18:56:21 10° NE 19:01:10 35° ESE 19:05:57 10° S
Meteor 1-27 Rocket 4.4 19:02:45 34° W 19:02:45 34° W 19:07:04 10° SW
Cosmos 1821 Rocket 4.4 18:56:32 10° NE 19:02:36 46° NNW 19:04:29 36° WNW
SJ 16-02 3.7 19:05:08 11° SW 19:05:08 11° SW 19:05:23 10° SSW
Meteor 2-4 Rocket 4.3 19:03:51 34° WSW 19:03:57 34° WSW 19:08:48 10° S
Cosmos 1674 4.2 19:04:20 25° SSW 19:05:15 28° S 19:08:36 10° SE
Cosmos 1300 4.1 19:02:33 10° NE 19:05:01 25° N 19:05:01 25° N
Cosmos 2279 Rocket 4.2 19:06:08 35° NW 19:08:07 46° W 19:14:04 10° SSW
Cosmos 2322 Rocket 4.4 19:07:23 10° SW 19:08:53 11° SSW 19:10:23 10° S
ARIANE 5 R/B 3.9 19:05:21 10° E 19:09:57 34° SSE 19:13:55 13° SW
Cosmos 1340 Rocket 4.3 19:13:48 24° SW 19:13:48 24° SW 19:16:51 10° SSE
Cosmos 2016 Rocket 4.2 19:07:59 10° NNE 19:13:53 46° NW 19:15:56 34° W
Cosmos 2228 4.4 19:10:01 10° E 19:13:55 32° NE 19:15:34 24° N
Cosmos 2061 Rocket 4.3 19:08:07 10° NNE 19:14:11 47° NW 19:16:37 33° W
Cosmos 1634 Rocket 4.2 19:15:36 32° NW 19:17:55 46° W 19:23:49 10° SSW
Cosmos 2227 Rocket 4.5 19:16:23 10° NE 19:18:03 11° NNE 19:19:42 10° N
Cosmos 1892 Rocket 4.5 19:18:17 33° SW 19:18:18 33° SW 19:22:19 10° S
Iridium 4 Rocket 3.2 19:14:05 10° NE 19:18:46 60° NNW 19:19:30 52° WNW
Cosmos 2034 Rocket 4.2 19:15:45 10° N 19:21:45 46° WNW 19:27:42 10° SW
Cosmos 2263 Rocket 4.3 19:21:45 10° N 19:22:26 11° N 19:22:26 11° N
Cosmos 2058 Rocket 4.4 19:21:41 10° ESE 19:25:40 32° NE 19:27:23 24° N
Terra 3.1 19:24:08 21° N 19:26:29 32° NE 19:30:49 10° ESE
H-2A R/B 3.3 19:23:58 16° N 19:27:37 35° NE 19:32:20 10° ESE
CZ-4B R/B 4.4 19:23:28 10° SSE 19:28:09 32° SW 19:29:14 30° WSW
Cosmos 1726 3.6 19:25:21 10° NE 19:27:45 25° NNE 19:27:45 25° NNE
ALOS 2 3.8 19:29:47 28° N 19:30:44 31° NNE 19:34:42 10° E
ASTEX 1 3.6 19:28:39 10° ESE 19:33:38 65° SSW 19:35:29 38° W
Cosmos 2173 Rocket 4.2 19:28:39 10° NNE 19:34:31 46° NW 19:36:28 35° W
Cosmos 2098 Rocket 4.4 19:28:31 10° ENE 19:35:04 46° N 19:36:48 37° NW
CZ-2D R/B 3.5 19:31:20 10° ESE 19:36:22 36° S 19:40:32 14° WSW
CZ-2C R/B 4.2 19:31:59 10° ENE 19:36:47 36° SE 19:41:36 10° SSW
ARGOS 4.5 19:33:25 14° N 19:37:37 35° ENE 19:42:33 10° SE
Cosmos 1242 Rocket 4.3 19:35:21 10° E 19:38:05 21° NNE 19:38:26 20° NNE
Cosmos 1605 Rocket 4.3 19:33:35 10° NE 19:39:33 46° NNW 19:41:24 37° WNW
Cosmos 1470 4.0 19:37:23 10° E 19:40:44 28° NNE 19:41:09 27° NNE
SL-08 R/B 4.2 19:41:56 32° N 19:41:56 32° N 19:46:02 10° NE
Cosmos 1459 Rocket 4.2 19:36:40 10° NE 19:42:35 46° NW 19:44:26 36° WNW
Cosmos 1934 Rocket 4.3 19:40:14 10° NE 19:46:01 45° NNW 19:47:34 38° NW
Cosmos 1975 Rocket 4.4 19:49:35 26° WSW 19:49:35 26° WSW 19:52:02 10° SSW
Cosmos 2297 Rocket 4.5 19:47:05 10° NE 19:48:38 11° NNE 19:50:11 10° NNE
Cosmos 1464 Rocket 4.2 19:43:10 10° N 19:49:01 46° WNW 19:54:57 10° SW
Cosmos-2242 4.1 19:45:29 10° E 19:49:24 32° NNE 19:50:00 31° N
Cosmos 1689 Rocket 4.3 19:51:24 19° NE 19:51:24 19° NE 19:52:53 10° ENE
H-2A R/B 3.4 19:49:06 24° N 19:50:22 28° NE 19:54:11 10° E
CZ-2C R/B 3.4 19:46:46 10° SSE 19:51:34 35° SW 19:52:45 31° WSW
Meteor 2-10 Rocket 4.3 19:48:42 10° NNE 19:53:21 35° NNW 19:53:21 35° NNW
S3M 4.3 19:54:39 36° WNW 19:56:23 45° WSW 20:02:10 10° S
CRYOSAT 2 4.4 19:52:15 10° SE 19:57:10 71° SSW 19:58:38 44° W
Cosmos 1626 3.9 19:56:40 20° SW 19:58:17 27° S 20:01:29 10° SE
Cosmos 1825 4.3 19:55:13 10° SSW 19:58:28 27° SE 20:01:44 10° E
GP-B 3.0 19:56:47 30° WSW 19:59:00 88° SSE 20:03:30 10° ENE
ADEOS II 3.6 19:54:16 10° E 19:59:07 35° SSE 20:03:58 10° SW
H-2A R/B 4.0 19:55:52 10° SE 19:59:23 27° SSW 20:00:51 21° SW
SL-16 R/B 3.1 19:59:12 34° NW 20:00:29 38° N 20:06:18 10° NE
Cosmos 2315 Rocket 4.5 19:59:17 34° W 20:01:22 46° SW 20:07:16 10° SSE
Cosmos 2233 Rocket 4.2 19:55:34 10° NNE 20:01:25 45° NW 20:07:14 10° WSW
Okean O Rocket 3.5 19:57:57 10° E 20:01:57 31° SSE 20:05:57 10° SW
Cosmos 2228 Rocket 4.1 19:58:21 10° NE 20:01:50 32° N 20:01:50 32° N
CZ-4B R/B 3.3 20:03:36 19° NE 20:03:36 19° NE 20:05:07 10° ENE
Cosmos 2100 Rocket 4.3 19:57:00 10° NE 20:03:01 46° NNW 20:05:07 35° WNW
Cosmos 1025 Rocket 4.1 20:03:55 30° WSW 20:03:55 30° WSW 20:07:14 10° SSW
ERS-1 Rocket 4.4 19:59:58 13° N 20:03:50 33° ENE 20:08:25 10° SE
Cosmos 2218 Rocket 4.5 19:59:51 10° E 20:05:53 46° N 20:08:01 35° NW
Iridium 51 4.5 20:02:22 10° E 20:06:04 49° NNE 20:06:10 48° NNE
SL-24 DEB 4.3 20:04:10 10° ESE 20:08:49 70° SSW 20:10:10 44° W
CZ-4 R/B 3.5 20:06:23 10° ENE 20:09:45 27° ESE 20:13:08 10° S
SPOT 5 4.3 20:09:16 17° N 20:12:39 33° ENE 20:17:07 10° SE
Cosmos 1953 3.6 20:10:37 10° E 20:14:05 29° NE 20:14:44 27° NNE
SL-8 Rocket 4.5 20:08:13 10° E 20:14:12 46° NNE 20:16:21 34° NNW
USA 186 3.9 20:14:38 13° NE 20:16:48 23° E 20:19:20 10° SSE
CZ-2C R/B 4.0 20:16:57 26° N 20:18:43 33° NE 20:23:02 10° ESE
YAOGAN 6 4.5 20:16:35 13° NNE 20:19:07 27° E 20:22:11 10° SSE
Mayak -0.1 20:15:21 10° SSE 20:19:07 30° SW 20:19:46 29° WSW
Cosmos 1980 Rocket 4.3 20:18:57 11° WSW 20:19:33 11° WSW 20:21:15 10° SW
Cosmos 1802 Rocket 4.2 20:14:18 10° NE 20:20:07 45° NNW 20:21:58 36° WNW
Cosmos 2366 rocket 4.4 20:15:32 10° E 20:21:25 46° NNE 20:23:24 35° NNW
Cosmos 2221 3.5 20:20:13 10° ENE 20:24:05 32° NNE 20:24:05 32° NNE
Helios 1B rocket 3.9 20:20:37 10° SSW 20:22:58 24° WSW 20:22:58 24° WSW
Cosmos 1455 4.0 20:21:54 10° NE 20:23:29 20° NNE 20:23:29 20° NNE
Cosmos 1151 Rocket 4.1 20:22:18 10° NE 20:25:14 29° NNE 20:25:14 29° NNE
Resurs 01 Rocket 3.4 20:22:29 10° NNE 20:26:29 31° E 20:30:29 10° SSE
ADEOS Rocket 4.3 20:20:10 10° SE 20:27:38 46° SSW 20:32:26 21° W
ALOS 4.0 20:23:54 10° NE 20:28:10 33° ESE 20:32:27 10° S
SL-16 R/B 4.4 20:27:13 10° WSW 20:28:50 11° SW 20:30:27 10° SSW
ARGOS Delta rocket 4.3 20:26:54 10° SSW 20:31:08 38° W 20:31:08 38° W
Resurs 1-4 Rocket 3.4 20:26:31 10° SE 20:31:24 35° S 20:35:18 15° WSW
Cosmos 1707 4.0 20:33:03 28° SW 20:33:16 28° SW 20:36:35 10° S
Cosmos 1238 Rocket 4.1 20:36:51 36° W 20:37:47 39° WSW 20:43:01 10° S
Cosmos 1725 Rocket 4.2 20:33:00 10° NE 20:38:54 46° NNW 20:41:29 30° W
Cosmos 1674 4.2 20:39:13 25° WSW 20:40:09 28° SSW 20:43:29 10° SSE
SJ 16-02 3.8 20:42:08 10° WSW 20:42:08 10° WSW 20:42:21 10° WSW
Cosmos 1300 4.1 20:37:33 10° ENE 20:40:01 25° NNE 20:40:01 25° NNE
IDEFIX/ARIANE 42P 4.2 20:37:10 10° ENE 20:41:58 35° SE 20:46:45 10° SSW
Cosmos 1553 Rocket 4.4 20:41:53 36° NW 20:43:53 47° W 20:49:59 10° S
Meteor 1-27 Rocket 4.5 20:45:13 34° WNW 20:45:13 34° WNW 20:49:29 10° WSW
Meteor 2-4 Rocket 4.3 20:45:56 34° W 20:46:02 34° W 20:50:53 10° SSW
Cosmos 1821 Rocket 4.4 20:41:11 10° ENE 20:47:15 46° N 20:49:08 36° NW
Cosmos 1340 Rocket 4.3 20:49:25 24° WSW 20:49:25 24° WSW 20:52:28 10° SSW
ARIANE 5 R/B 3.9 20:45:42 10° SE 20:50:18 34° S 20:54:16 13° WSW
Cosmos 2322 Rocket 4.4 20:49:10 10° WSW 20:50:41 11° SW 20:52:11 10° SW
Cosmos 2228 4.4 20:46:51 10° SE 20:50:46 32° ENE 20:52:25 24° NNE
Cosmos 2279 Rocket 4.2 20:50:44 35° NNW 20:52:42 46° WNW 20:58:39 10° SW
Cosmos 1892 Rocket 4.5 20:55:27 33° W 20:55:27 33° W 20:59:29 10° SSW
Cosmos 2016 Rocket 4.2 20:52:36 10° NE 20:58:29 46° NNW 21:00:31 34° WNW
Iridium 4 Rocket 3.2 20:53:52 10° ENE 20:58:33 60° N 20:59:16 52° NW
Cosmos 2061 Rocket 4.3 20:53:04 10° NE 20:59:08 47° NNW 21:01:32 33° WNW
Cosmos 1634 Rocket 4.2 21:00:16 32° NNW 21:02:35 46° WNW 21:08:30 10° SW
Cosmos 2058 Rocket 4.4 20:58:58 10° SE 21:02:57 32° ENE 21:04:39 24° NNE
Cosmos 1726 3.6 20:59:56 10° ENE 21:02:20 25° NE 21:02:20 25° NE
Cosmos 2263 Rocket 4.3 21:03:26 10° NNE 21:04:08 11° NNE 21:04:08 11° NNE
Terra 3.1 21:03:01 21° NNE 21:05:23 32° ENE 21:09:42 10° SE
Cosmos 2034 Rocket 4.2 21:00:29 10° NNE 21:06:29 46° NW 21:12:26 10° WSW
CZ-4B R/B 4.4 21:03:25 10° S 21:08:05 32° WSW 21:09:10 30° W
ALOS 2 3.8 21:07:10 28° NNE 21:08:09 31° NE 21:12:05 10° ESE
H-2A R/B 3.3 21:04:36 16° NNE 21:08:15 35° E 21:12:58 10° SE
Cosmos 1242 Rocket 4.3 21:09:27 10° ESE 21:12:11 21° NE 21:12:33 20° NE
ASTEX 1 3.6 21:08:09 10° SE 21:13:09 65° SW 21:15:00 38° WNW
Cosmos 2098 Rocket 4.4 21:09:10 10° E 21:15:44 46° NNE 21:17:27 37° NNW
Cosmos 1470 4.0 21:12:45 10° ESE 21:16:07 28° NE 21:16:32 27° NE
CZ-2C R/B 4.2 21:11:22 10° E 21:16:11 36° SSE 21:20:59 10° SW
CZ-2D R/B 3.5 21:12:39 10° SE 21:17:41 36° SSW 21:21:51 14° W
Cosmos 2173 Rocket 4.2 21:13:15 10° ENE 21:19:07 46° N 21:21:03 36° NW
ARGOS 4.5 21:14:55 14° NNE 21:19:08 35° E 21:24:03 10° SSE
SL-08 R/B 4.2 21:20:55 32° NNE 21:20:55 32° NNE 21:25:01 10° ENE
Cosmos 1689 Rocket 4.3 21:24:06 19° ENE 21:24:06 19° ENE 21:25:34 10° E
Cosmos 1605 Rocket 4.3 21:18:14 10° ENE 21:24:12 46° N 21:26:03 37° NW
Cosmos 1975 Rocket 4.4 21:26:45 25° W 21:26:45 25° W 21:29:11 10° SW
Cosmos-2242 4.1 21:22:20 10° ESE 21:26:15 32° NE 21:26:51 31° NNE
Cosmos 1459 Rocket 4.2 21:21:11 10° ENE 21:27:06 46° N 21:28:56 36° NW
H-2A R/B 3.4 21:26:14 24° NNE 21:27:29 28° ENE 21:31:18 10° ESE
Cosmos 1934 Rocket 4.3 21:24:44 10° E 21:30:32 45° N 21:32:05 38° NNW
Cosmos 1626 3.9 21:31:17 20° WSW 21:32:55 27° SSW 21:36:07 10° SSE
CZ-2C R/B 3.4 21:28:17 10° S 21:33:05 35° WSW 21:34:16 31° WNW
Cosmos 1825 4.3 21:30:05 10° SW 21:33:20 27° SSE 21:36:35 10° ESE
Cosmos 1464 Rocket 4.2 21:27:52 10° NE 21:33:42 46° NW 21:39:37 10° WSW
Meteor 2-10 Rocket 4.3 21:29:50 10° NE 21:34:29 35° N 21:34:29 35° N
H-2A R/B 4.0 21:32:28 10° SSE 21:35:59 27° SW 21:37:27 22° WSW
CZ-4B R/B 3.3 21:37:06 19° ENE 21:37:06 19° ENE 21:38:37 10° E
CRYOSAT 2 4.4 21:31:28 10° SSE 21:36:23 71° WSW 21:37:51 44° NW
GP-B 3.0 21:34:15 30° W 21:36:27 88° S 21:40:57 10° E
Okean O Rocket 3.5 21:35:25 10° ESE 21:39:25 31° S 21:43:25 10° WSW
Cosmos 2228 Rocket 4.1 21:35:51 10° ENE 21:39:20 32° NNE 21:39:20 32° NNE
ADEOS II 3.6 21:35:13 10° ESE 21:40:04 35° S 21:44:55 10° WSW
Cosmos 1025 Rocket 4.1 21:40:49 30° W 21:40:49 30° W 21:44:07 10° SW
S3M 4.3 21:39:21 37° NW 21:41:04 45° W 21:46:52 10° SSW
Iridium 51 4.5 21:39:14 10° ESE 21:42:55 49° NE 21:43:01 48° NE
ERS-1 Rocket 4.4 21:39:58 13° NNE 21:43:50 33° E 21:48:25 10° SSE
SL-16 R/B 3.1 21:44:18 34° N 21:45:34 38° NNE 21:51:24 10° E
CZ-4 R/B 3.5 21:42:26 10° E 21:45:47 27° SE 21:49:11 10° SSW
Cosmos 2233 Rocket 4.2 21:40:08 10° NE 21:46:00 45° NNW 21:51:49 10° W
Cosmos 2315 Rocket 4.5 21:44:08 34° NW 21:46:13 46° W 21:52:07 10° SSW
SL-24 DEB 4.3 21:42:41 10° SE 21:47:19 70° SW 21:48:41 45° WNW
Cosmos 2100 Rocket 4.3 21:41:44 10° ENE 21:47:44 46° N 21:49:50 35° NW
USA 186 3.9 21:45:56 13° ENE 21:48:05 23° ESE 21:50:36 10° S
Cosmos 1953 3.6 21:46:20 10° ESE 21:49:48 29° ENE 21:50:27 27° NE
Cosmos 2218 Rocket 4.5 21:44:38 10° ESE 21:50:39 46° NE 21:52:48 35° N
SPOT 5 4.3 21:48:32 17° NNE 21:51:53 33° E 21:56:21 10° SSE
YAOGAN 6 4.5 21:51:01 13° NE 21:53:32 27° ESE 21:56:36 10° S
Mayak -0.1 21:52:00 10° S 21:55:46 30° WSW 21:56:24 29° W
SL-8 Rocket 4.5 21:52:51 10° ESE 21:58:51 46° NE 22:00:58 34° N
CZ-2C R/B 4.0 21:58:02 26° NNE 21:59:47 33° ENE 22:04:07 10° SE
Cosmos 1455 4.0 21:56:52 10° ENE 21:58:27 20° NE 21:58:27 20° NE
Helios 1B rocket 3.9 21:56:59 10° SW 21:59:19 23° W 21:59:19 23° W
Cosmos 2221 3.5 21:57:05 10° E 22:00:57 32° NE 22:00:57 32° NE
Cosmos 1980 Rocket 4.3 22:00:43 11° W 22:01:18 11° W 22:03:00 10° WSW
Cosmos 1151 Rocket 4.1 21:59:09 10° ENE 22:02:04 29° NE 22:02:04 29° NE
Resurs 01 Rocket 3.4 22:00:03 10° NE 22:04:03 31° ESE 22:08:03 10° S
Cosmos 1802 Rocket 4.2 21:59:08 10° ENE 22:04:56 45° N 22:06:45 36° NW
Cosmos 2366 rocket 4.4 22:00:12 10° ESE 22:06:05 46° NE 22:08:04 35° N
ALOS 4.0 22:02:25 10° ENE 22:06:42 33° SE 22:10:58 10° SSW
Cosmos 1707 4.0 22:08:16 28° W 22:08:28 28° WSW 22:11:47 10° SSW
SL-16 R/B 4.4 22:09:04 10° W 22:10:41 11° WSW 22:12:17 10° SW
ARGOS Delta rocket 4.3 22:06:31 10° SW 22:10:44 38° WNW 22:10:44 38° WNW
Resurs 1-4 Rocket 3.4 22:07:36 10° SSE 22:12:29 35° SW 22:16:23 15° W
ADEOS Rocket 4.3 22:07:07 10° SSE 22:14:36 46° SW 22:19:23 21° WNW
Cosmos 1674 4.2 22:14:06 25° W 22:15:01 28° SW 22:18:22 10° S
Cosmos 1300 4.2 22:12:32 10° E 22:15:00 25° NE 22:15:00 25° NE
Cosmos 1238 Rocket 4.1 22:15:55 36° WNW 22:16:51 39° W 22:22:04 10° SSW
SJ 16-02 3.8 22:19:08 10° W 22:19:08 10° W 22:19:21 10° W
IDEFIX/ARIANE 42P 4.2 22:17:59 10° ESE 22:22:46 35° S 22:27:34 10° SW
Cosmos 1725 Rocket 4.2 22:17:40 10° ENE 22:23:34 46° N 22:26:07 30° NW
Cosmos 1340 Rocket 4.3 22:25:03 24° W 22:25:03 24° W 22:28:04 10° SW
Meteor 1-27 Rocket 4.5 22:27:42 34° NW 22:27:42 34° NW 22:31:54 10° W
Cosmos 2228 4.4 22:23:41 10° SSE 22:27:36 32° E 22:29:16 24° NE
Meteor 2-4 Rocket 4.3 22:28:02 34° NW 22:28:06 34° WNW 22:32:57 10° WSW
Cosmos 1553 Rocket 4.4 22:26:32 36° NNW 22:28:31 47° WNW 22:34:37 10° SW
ARIANE 5 R/B 3.9 22:26:02 10° SSE 22:30:38 34° SW 22:34:36 13° W
Cosmos 1821 Rocket 4.4 22:25:50 10° E 22:31:54 46° NNE 22:33:46 37° NNW
Cosmos 2322 Rocket 4.4 22:30:58 10° W 22:32:27 11° WSW 22:33:59 10° WSW
Cosmos 1892 Rocket 4.5 22:32:38 33° WNW 22:32:38 33° WNW 22:36:39 10° SW
Cosmos 2279 Rocket 4.2 22:35:19 35° N 22:37:17 46° NW 22:43:13 10° WSW
Cosmos 1726 3.6 22:34:30 10° E 22:36:55 25° ENE 22:36:55 25° ENE
Iridium 4 Rocket 3.2 22:33:39 10° E 22:38:20 60° NNE 22:39:02 52° NNW
Cosmos 2058 Rocket 4.4 22:36:14 10° SSE 22:40:12 32° E 22:41:55 24° NE
Cosmos 2227 Rocket 4.5 22:39:58 10° E 22:41:38 11° ENE 22:43:18 10° ENE
Cosmos 2016 Rocket 4.2 22:37:13 10° ENE 22:43:07 46° N 22:45:07 35° NW
Cosmos 2061 Rocket 4.3 22:38:01 10° E 22:44:05 47° N 22:46:28 33° NW
Terra 3.1 22:41:54 21° NE 22:44:16 32° E 22:48:35 10° SSE
ALOS 2 3.8 22:44:34 28° NE 22:45:32 31° ENE 22:49:29 10° SE
Cosmos 1242 Rocket 4.3 22:43:33 10° SE 22:46:17 21° E 22:46:39 20° ENE
Cosmos 2263 Rocket 4.3 22:45:06 10° ENE 22:45:49 11° NE 22:45:49 11° NE
Cosmos 1634 Rocket 4.2 22:44:56 32° NNE 22:47:15 46° NNW 22:53:10 10° WSW
CZ-4B R/B 4.4 22:43:21 10° SSW 22:48:02 32° W 22:49:06 30° WNW
H-2A R/B 3.3 22:45:14 16° NE 22:48:52 35° ESE 22:53:36 10° S
Cosmos 2034 Rocket 4.2 22:45:14 10° NE 22:51:14 46° NNW 22:57:10 10° W
Cosmos 1470 4.0 22:48:08 10° SE 22:51:28 28° ENE 22:51:54 27° ENE
ASTEX 1 3.6 22:47:40 10° SSE 22:52:40 65° WSW 22:54:30 38° NW
CZ-2C R/B 4.2 22:50:46 10° ESE 22:55:34 36° S 23:00:23 10° WSW
Cosmos 1689 Rocket 4.3 22:56:47 19° E 22:56:47 19° E 22:58:15 10° ESE
Cosmos 2098 Rocket 4.4 22:49:51 10° ESE 22:56:23 46° NE 22:58:06 37° N
CZ-2D R/B 3.5 22:53:59 10° SSE 22:59:01 36° SW 23:03:11 14° WNW
SL-08 R/B 4.2 22:59:54 32° NE 22:59:54 32° NE 23:04:00 10° ESE
ARGOS 4.5 22:56:27 14° NE 23:00:39 35° ESE 23:05:34 10° S
Cosmos 1975 Rocket 4.4 23:03:55 25° WNW 23:03:55 25° WNW 23:06:20 10° W
Cosmos-2242 4.1 22:59:11 10° SE 23:03:06 32° ENE 23:03:42 31° NE
Cosmos 2173 Rocket 4.2 22:57:52 10° E 23:03:43 46° NNE 23:05:38 36° NNW
H-2A R/B 3.4 23:03:21 24° ENE 23:04:36 28° E 23:08:25 10° SSE
Cosmos 1626 3.9 23:05:55 20° W 23:07:32 27° SW 23:10:44 10° S
Cosmos 1825 4.3 23:04:56 10° WSW 23:08:12 27° S 23:11:27 10° SE
Cosmos 1605 Rocket 4.3 23:02:54 10° E 23:08:52 46° NNE 23:10:42 37° NNW
CZ-4B R/B 3.3 23:10:36 19° E 23:10:36 19° E 23:12:07 10° ESE
Cosmos 1459 Rocket 4.2 23:05:41 10° E 23:11:36 46° NNE 23:13:26 36° NNW
Cosmos 2297 Rocket 4.5 23:10:39 10° E 23:12:12 11° E 23:13:45 10° ENE
H-2A R/B 4.0 23:09:04 10° S 23:12:35 27° WSW 23:14:02 22° W
GP-B 3.0 23:11:43 30° WNW 23:13:55 88° SSW 23:18:25 10° ESE
CZ-2C R/B 3.4 23:09:48 10° SSW 23:14:36 35° W 23:15:47 31° NW
Cosmos 1934 Rocket 4.3 23:09:15 10° ESE 23:15:03 45° NE 23:16:35 38° N
CRYOSAT 2 4.4 23:10:42 10° S 23:15:37 71° W 23:17:05 45° NNW
Meteor 2-10 Rocket 4.3 23:10:58 10° E 23:15:37 35° NNE 23:15:37 35° NNE
Okean O Rocket 3.5 23:12:52 10° SE 23:16:52 31° SSW 23:20:52 10° W
Cosmos 1025 Rocket 4.1 23:17:43 30° WNW 23:17:43 30° WNW 23:21:01 10° WSW
Cosmos 2228 Rocket 4.1 23:13:20 10° E 23:16:48 32° NE 23:16:48 32° NE
Cosmos 1464 Rocket 4.2 23:12:32 10° ENE 23:18:23 46° N 23:24:19 10° W
USA 186 3.9 23:17:14 13° E 23:19:22 23° SE 23:21:53 10° SSW
Iridium 51 4.5 23:16:06 10° SSE 23:19:46 49° ENE 23:19:52 48° ENE
ADEOS II 3.6 23:16:10 10° SSE 23:21:01 35° SSW 23:25:52 10° W
CZ-4 R/B 3.5 23:18:29 10° ESE 23:21:51 27° SSE 23:25:14 10° SW
ERS-1 Rocket 4.4 23:19:58 14° ENE 23:23:50 33° ESE 23:28:25 10° S
Cosmos 1953 3.6 23:22:02 10° SE 23:25:31 29° E 23:26:10 27° ENE
S3M 4.3 23:24:02 37° NNW 23:25:45 45° WNW 23:31:32 10° SW
SL-24 DEB 4.3 23:21:11 10° S 23:25:50 70° WSW 23:27:11 45° NW
YAOGAN 6 4.5 23:25:27 13° E 23:27:58 27° SE 23:31:02 10° SSW
Cosmos 2233 Rocket 4.2 23:24:43 10° ENE 23:30:34 45° N 23:36:23 10° WNW
SL-16 R/B 3.1 23:29:23 34° NNE 23:30:39 38° NE 23:36:29 10° ESE
Cosmos 2315 Rocket 4.5 23:28:59 34° NNW 23:31:03 46° WNW 23:36:58 10° SW
SPOT 5 4.3 23:27:46 17° ENE 23:31:07 33° ESE 23:35:36 10° S
Mayak -0.1 23:28:38 10° SSW 23:32:24 30° W 23:33:02 29° WNW
Cosmos 2100 Rocket 4.3 23:26:27 10° E 23:32:27 46° NNE 23:34:32 35° NNW
Cosmos 1455 4.0 23:31:50 10° E 23:33:25 20° ENE 23:33:25 20° ENE
Cosmos 2218 Rocket 4.5 23:29:24 10° SE 23:35:26 46° ENE 23:37:34 35° NNE
Helios 1B rocket 3.9 23:33:21 10° WSW 23:35:40 23° WNW 23:35:40 23° WNW
Cosmos 2221 3.5 23:33:56 10° ESE 23:37:48 32° ENE 23:37:48 32° ENE
Cosmos 1151 Rocket 4.2 23:35:59 10° ESE 23:38:54 28° ENE 23:38:54 28° ENE
CZ-2C R/B 4.0 23:39:06 26° NE 23:40:51 33° E 23:45:10 10° SSE
Resurs 01 Rocket 3.4 23:37:38 10° E 23:41:38 31° SE 23:45:37 10° SSW
Cosmos 1980 Rocket 4.3 23:42:29 11° WNW 23:43:03 11° WNW 23:44:44 10° W
SL-8 Rocket 4.5 23:37:28 10° SE 23:43:28 46° ENE 23:45:36 34° NNE
Cosmos 1707 4.0 23:43:28 28° WNW 23:43:40 28° W 23:47:00 10° SW
ALOS 4.0 23:40:57 10° E 23:45:13 33° SSE 23:49:30 10° SW
Cosmos 1802 Rocket 4.2 23:43:57 10° E 23:49:45 45° NNE 23:51:33 36° NNW
Cosmos 1674 4.2 23:49:00 25° WNW 23:49:53 28° W 23:53:14 10° SSW
ARGOS Delta rocket 4.3 23:46:08 10° WSW 23:50:20 38° NW 23:50:20 38° NW
Cosmos 2366 rocket 4.4 23:44:52 10° SE 23:50:45 46° ENE 23:52:44 35° NNE
Cosmos 1300 4.1 23:47:31 10° ESE 23:49:59 25° ENE 23:49:59 25° ENE
SL-16 R/B 4.4 23:50:54 10° WNW 23:52:31 11° W 23:54:08 10° W
Resurs 1-4 Rocket 3.4 23:48:41 10° S 23:53:34 35° WSW 23:57:27 15° WNW
SJ 16-02 3.8 23:56:09 10° WNW 23:56:09 10° WNW 23:56:20 10° WNW
